TimeMST,TemperatureF,Dew PointF,Humidity,Sea Level PressureIn,VisibilityMPH,Wind Direction,Wind SpeedMPH,Gust SpeedMPH,PrecipitationIn,Events,Conditions,WindDirDegrees,DateUTC
12:53 AM,27.0,16.0,63,29.81,10.0,SSW,26.5,40.3,N/A,,Clear,200,2012-12-12 07:53:00
1:53 AM,27.0,16.0,63,29.80,10.0,Variable,3.5,-,N/A,,Clear,0,2012-12-12 08:53:00
2:53 AM,30.0,15.1,54,29.73,10.0,SW,23.0,38.0,N/A,,Clear,230,2012-12-12 09:53:00
3:53 AM,28.9,15.1,56,29.76,10.0,SW,25.3,39.1,N/A,,Clear,220,2012-12-12 10:53:00
4:53 AM,28.0,15.1,58,29.77,10.0,SW,18.4,28.8,N/A,,Clear,220,2012-12-12 11:53:00
5:53 AM,27.0,14.0,58,29.78,10.0,SSW,21.9,35.7,N/A,,Clear,210,2012-12-12 12:53:00
6:53 AM,28.0,14.0,56,29.75,10.0,SW,26.5,35.7,N/A,,Clear,220,2012-12-12 13:53:00
7:53 AM,28.0,14.0,56,29.74,10.0,SW,24.2,32.2,N/A,,Clear,220,2012-12-12 14:53:00
8:53 AM,30.9,15.1,52,29.74,10.0,SSW,25.3,42.6,N/A,,Clear,210,2012-12-12 15:53:00
9:53 AM,34.0,15.1,46,29.74,10.0,SSW,34.5,51.8,N/A,,Clear,210,2012-12-12 16:53:00
10:53 AM,35.1,15.1,44,29.76,10.0,SW,32.2,43.7,N/A,,Clear,220,2012-12-12 17:53:00
11:53 AM,37.9,16.0,41,29.75,10.0,SW,29.9,42.6,N/A,,Clear,230,2012-12-12 18:53:00
12:53 PM,37.9,16.0,41,29.75,10.0,SW,21.9,36.8,N/A,,Clear,220,2012-12-12 19:53:00
1:53 PM,37.0,15.1,41,29.76,10.0,SW,25.3,35.7,N/A,,Clear,230,2012-12-12 20:53:00
2:53 PM,37.0,15.1,41,29.77,10.0,SW,21.9,33.4,N/A,,Scattered Clouds,230,2012-12-12 21:53:00
3:53 PM,35.1,16.0,46,29.82,10.0,WSW,16.1,-,N/A,,Mostly Cloudy,250,2012-12-12 22:53:00
4:53 PM,34.0,16.0,48,29.85,10.0,WSW,13.8,24.2,N/A,,Overcast,250,2012-12-12 23:53:00
5:53 PM,33.1,16.0,50,29.89,10.0,WSW,16.1,-,N/A,,Overcast,250,2012-12-13 00:53:00
6:53 PM,32.0,15.1,50,29.89,10.0,WSW,17.3,-,N/A,,Partly Cloudy,240,2012-12-13 01:53:00
7:53 PM,32.0,14.0,48,29.89,10.0,SW,19.6,-,N/A,,Scattered Clouds,230,2012-12-13 02:53:00
8:53 PM,30.0,14.0,51,29.88,10.0,West,15.0,-,N/A,,Clear,260,2012-12-13 03:53:00
9:53 PM,28.9,14.0,54,29.90,10.0,WSW,13.8,-,N/A,,Clear,250,2012-12-13 04:53:00
10:53 PM,30.0,14.0,51,29.91,10.0,WSW,16.1,-,N/A,,Clear,240,2012-12-13 05:53:00
11:53 PM,30.0,14.0,51,29.91,10.0,SW,11.5,-,N/A,,Clear,230,2012-12-13 06:53:00